Home   Weather   Wittlich   Past weeks

Flag for Germany Past Weather in Wittlich, Rhineland-Palatinate, Germany — Yesterday and Last 2 Weeks

Now
51 °F

Passing clouds.


Feels Like: 51 °F
Forecast: 56 / 76 °F
Wind: No wind

Location: Spangdahlem

Current Time: Aug 21, 2017 at 6:54:36 am

Latest Report: Aug 21, 2017 at 5:58 am


Visibility: N/A

Pressure: 30.20 "Hg

Humidity: 90%

Dew Point: 49 °F

Location of WittlichLocation

Past Weather in Wittlich — Graph

°F

Wittlich Temperature Yesterday

Maximum temperature yesterday: 64 °F (at 4:13 pm)
Minimum temperature yesterday: 48 °F (at 3:29 am)
Average temperature yesterday: 55 °F

High & Low Weather Summary for the Past Weeks

 TemperatureHumidityPressure
High77 °F (Aug 14, 5:58 pm)100% (Aug 10, 1:33 am)30.25 "Hg (Aug 10, 1:33 am)
Low48 °F (Aug 7, 6:58 am)40% (Aug 6, 3:06 pm)29.77 "Hg (Aug 8, 6:58 am)
Average60 °F83%30.04 "Hg
* Reported Aug 6 5:58 am — Aug 21 5:58 am, Wittlich. Weather by CustomWeather, © 2017

Note: Actual official high and low records may vary slightly from our data, if they occured in-between our weather recording intervals... More about our weather records

Advertising

Wittlich Weather History for the Previous 24 Hours

Scroll right to see more
 ConditionsComfort  
Time TempWeatherWind HumidityBarometerVisibility
5:58 am
Mon, Aug 21
51 °FPassing clouds.No wind90%30.20 "HgN/A
4:58 am52 °FPassing clouds.No wind86%30.20 "HgN/A
3:58 am52 °FPassing clouds.No wind88%30.22 "HgN/A
2:58 am52 °FOvercast.No wind85%30.22 "HgN/A
1:58 am51 °FPassing clouds.No wind90%30.24 "HgN/A
12:58 am54 °FPassing clouds.No wind78%30.24 "HgN/A
11:58 pm
Sun, Aug 20
54 °FPassing clouds.No wind79%30.24 "HgN/A
10:58 pm55 °FPassing clouds.No wind77%30.25 "HgN/A
9:58 pm56 °FPassing clouds.No wind75%30.25 "HgN/A
8:58 pm58 °FClear.6 mph72%30.23 "HgN/A
7:58 pm61 °FPassing clouds.3 mph62%30.22 "HgN/A
6:58 pm63 °FPassing clouds.5 mph59%30.22 "HgN/A
6:38 pm63 °FBroken clouds.5 mph56%30.22 "HgN/A
5:58 pm64 °FPartly sunny.5 mph53%30.22 "HgN/A
4:58 pm62 °FPartly sunny.6 mph58%30.24 "HgN/A
4:13 pm64 °FScattered clouds.8 mph52%30.24 "HgN/A
4:08 pm63 °FBroken clouds.10 mph56%30.24 "HgN/A
3:33 pm61 °FBroken clouds.9 mph59%30.23 "HgN/A
2:58 pm61 °FPartly sunny.7 mph59%30.24 "HgN/A
1:58 pm61 °FScattered clouds.10 mph61%30.23 "HgN/A
1:43 pm61 °FBroken clouds.12 mph63%30.23 "HgN/A
12:58 pm62 °FScattered clouds.12 mph65%30.22 "HgN/A
12:13 pm59 °FScattered clouds.10 mph72%30.24 "HgN/A
12:08 pm59 °FPartly sunny.8 mph72%30.24 "HgN/A
11:58 am58 °FMostly cloudy.10 mph75%30.24 "HgN/A
11:23 am57 °FMostly cloudy.7 mph77%30.24 "HgN/A
11:18 am57 °FPartly sunny.7 mph77%30.24 "HgN/A
11:03 am55 °FPartly sunny.8 mph82%30.24 "HgN/A
10:58 am56 °FBroken clouds.6 mph83%30.24 "HgN/A
10:38 am55 °FBroken clouds.8 mph82%30.24 "HgN/A
9:58 am55 °FMostly cloudy.8 mph86%30.24 "HgN/A
9:43 am54 °FLow clouds.6 mph88%30.23 "HgN/A
9:23 am54 °FPartly sunny.7 mph88%30.22 "HgN/A
8:58 am53 °FPartly sunny.6 mph91%30.21 "HgN/A
8:38 am52 °FScattered clouds.7 mph88%30.21 "HgN/A
8:23 am52 °FPartly sunny.6 mph94%30.21 "HgN/A
7:58 am50 °FSunny.6 mph93%30.20 "HgN/A
7:38 am50 °FScattered clouds.6 mph94%30.20 "HgN/A
6:58 am50 °FOvercast.7 mph94%30.19 "HgN/A
Weather by CustomWeather, © 2017

See weather overviewHow to use our weather pages